Вернуться в каталог

STARLINK-36327

АктивенСвязьSSO
NORAD 67738·PAYLOAD·🇺🇸 United States

Запущен Feb 11, 2026 с Vandenberg Space Force Base

Loading…

Ближайшие Пролёты (ближайшие 24 часа)

TLE

СвежийSource: CelesTrak SupGP

Эпоха: Sep 14, 2026, 21:46 UTC

1 67738C 26026T   26257.90743056 -.00008520  00000+0 -26452-3 0  2578
2 67738  97.2854 309.8543 0001081  94.4414 343.4783 15.33441031    14

Отслеживайте STARLINK-36327 в реальном времени с AllMySat

Download on the App Store